If you wish to contribute or participate in the discussions about articles you are invited to join SKYbrary as a registered user

 Actions

Altamira Airport

From SKYbrary Wiki

SBHT
Airport
ICAO: SBHT – IATA: ATM
Summary
Name Altamira Airport
Region South America and Caribbean
Territory Brazil BR.gif
Location Altamira, Para
Serving Altamira
Elevation 112.166 m
368 ft112.166 m
Coordinates 3° 15' 2.99" S, 52° 15' 7.99" W
Runways
Designator Length Width Surface ROPS
7/25 2003 m6,571.522 ft
38 m124.672 ft
ASP /


METAR
Observation SBHT 241400Z 30002KT 9999 SCT015 BKN090 28/25 Q1016
Station Altamira
Date/Time 24 May 2020 14:00:00
Wind direction 300°
Wind speed 02 kts
Lowest cloud amount scattered clouds
Temperature 28°C
Dew point 25°C
Humidity 83%
QNH 1016 hPa
Weather condition n/a

Altamira Airport is the airport serving Altamira, Brazil.

Climatology

Tropical rainforest climate (Köppen climate classification Af)

Maps

Terrain

Loading map...

Airport Layout

Loading map...


Accidents & Serious Incidents at or in vicinity of SBHT

None on SKYbrary